Location: Peach Mountain Observatory
(42.3967°N, 83.9367°W)
Time: 20:53:09
(UTC-04:00)

deb Explorer IX - Pass Details

Date: 28 January 2020
Orbit: 547 x 1100 km, 38.8° (Epoch: 01 April)

Event Time Altitude Azimuth Distance (km) Brightness Sun altitude
Rises 01:44:31 0° 277° (W) 3,890 - -63.1°
Reaches altitude 10° 01:47:24 10° 271° (W) 2,950 - -62.9°
Maximum altitude 01:54:12 42° 204° (SSW) 1,496 - -62.2°
Drops below altitude 10° 02:00:44 10° 135° (SE) 2,834 - -61.5°
Sets 02:03:28 0° 129° (SE) 3,724 - -61.1°
